BAW2AW EDDF-EGLL

Flight info

Callsign BAW2AW
Flight time 1h 15m
Altitude 34000
Route OBOKA3W/25C OBOKA Z29 TORNU DCT ABNED L980 LOGAN
Aircraft A320/M-SDE3FGHIRWY/LB1

Departure

Time 2026-05-06 14:58
Airport Frankfurt Main Airport (EDDF)

Arrival

Time 2026-05-06 16:14
Airport London Heathrow Airport (EGLL)
Time Latitude Longitude Altitude Speed Heading
2026-05-06 14:37 50.04424 8.56274 363 ft 0 kts 165°
2026-05-06 14:45 50.04451 8.56263 363 ft 3 kts 168°
2026-05-06 14:45 50.04470 8.56260 360 ft 3 kts 195°
2026-05-06 14:45 50.04487 8.56273 360 ft 3 kts 233°
2026-05-06 14:45 50.04496 8.56299 362 ft 2 kts 249°
2026-05-06 14:46 50.04498 8.56310 361 ft 1 kts 250°
2026-05-06 14:48 50.04498 8.56309 361 ft 1 kts 250°
2026-05-06 14:48 50.04490 8.56276 360 ft 5 kts 249°
2026-05-06 14:49 50.04474 8.56207 362 ft 12 kts 250°
2026-05-06 14:49 50.04443 8.56084 360 ft 12 kts 247°
2026-05-06 14:49 50.04387 8.56035 362 ft 8 kts 168°
2026-05-06 14:49 50.04338 8.56060 364 ft 8 kts 159°
2026-05-06 14:50 50.04289 8.56144 358 ft 14 kts 107°
2026-05-06 14:50 50.04215 8.56221 359 ft 12 kts 158°
2026-05-06 14:50 50.04141 8.56278 359 ft 12 kts 124°
2026-05-06 14:50 50.04159 8.56411 359 ft 15 kts 70°
2026-05-06 14:51 50.04198 8.56576 362 ft 23 kts 70°
2026-05-06 14:51 50.04257 8.56822 368 ft 22 kts 68°
2026-05-06 14:51 50.04307 8.57029 367 ft 20 kts 69°
2026-05-06 14:51 50.04360 8.57248 368 ft 23 kts 70°
2026-05-06 14:52 50.04413 8.57478 369 ft 22 kts 69°
2026-05-06 14:52 50.04464 8.57689 370 ft 19 kts 70°
2026-05-06 14:52 50.04511 8.57886 370 ft 19 kts 70°
2026-05-06 14:52 50.04555 8.58067 373 ft 20 kts 70°
2026-05-06 14:53 50.04613 8.58311 374 ft 26 kts 69°
2026-05-06 14:53 50.04650 8.58546 370 ft 15 kts 107°
2026-05-06 14:53 50.04622 8.58598 371 ft 3 kts 161°
2026-05-06 14:53 50.04582 8.58615 371 ft 0 kts 166°
2026-05-06 14:57 50.04545 8.58623 372 ft 12 kts 178°
2026-05-06 14:57 50.04483 8.58558 372 ft 11 kts 242°
2026-05-06 14:58 50.04408 8.58253 373 ft 61 kts 249°
2026-05-06 14:58 50.04193 8.57354 368 ft 113 kts 249°
2026-05-06 14:58 50.03858 8.55950 402 ft 163 kts 251°
2026-05-06 14:58 50.03470 8.54244 1060 ft 167 kts 253°
2026-05-06 14:59 50.03066 8.52552 1673 ft 170 kts 251°
2026-05-06 14:59 50.02619 8.50775 1916 ft 190 kts 244°
2026-05-06 14:59 50.01761 8.49125 2363 ft 203 kts 222°
2026-05-06 14:59 50.00496 8.48124 2965 ft 208 kts 198°
2026-05-06 15:00 49.99073 8.47765 3607 ft 206 kts 191°
2026-05-06 15:00 49.97660 8.47450 4181 ft 205 kts 191°
2026-05-06 15:00 49.96247 8.47123 4736 ft 205 kts 194°
2026-05-06 15:00 49.94826 8.46513 4950 ft 223 kts 199°
2026-05-06 15:01 49.93286 8.45795 5290 ft 236 kts 200°
2026-05-06 15:01 49.91834 8.44663 5849 ft 239 kts 217°
2026-05-06 15:01 49.90660 8.42853 6483 ft 240 kts 234°
2026-05-06 15:01 49.89783 8.40636 7074 ft 242 kts 239°
2026-05-06 15:02 49.88988 8.38326 7602 ft 245 kts 249°
2026-05-06 15:02 49.88614 8.35723 7964 ft 256 kts 265°
2026-05-06 15:02 49.88707 8.32889 8161 ft 269 kts 273°
2026-05-06 15:02 49.88868 8.29970 8528 ft 273 kts 273°
2026-05-06 15:03 49.89243 8.27067 8941 ft 278 kts 287°
2026-05-06 15:03 49.90107 8.24363 9363 ft 283 kts 302°
2026-05-06 15:03 49.91286 8.21894 9762 ft 286 kts 304°
2026-05-06 15:03 49.92464 8.19438 10016 ft 292 kts 304°
2026-05-06 15:04 49.93706 8.16873 10138 ft 302 kts 307°
2026-05-06 15:04 49.95210 8.14525 10262 ft 312 kts 317°
2026-05-06 15:04 49.96877 8.12308 10384 ft 319 kts 317°
2026-05-06 15:04 49.98573 8.10043 10510 ft 324 kts 316°
2026-05-06 15:05 50.00256 8.07797 10948 ft 317 kts 317°
2026-05-06 15:05 50.01944 8.05542 11059 ft 322 kts 317°
2026-05-06 15:05 50.03719 8.03378 11193 ft 328 kts 324°
2026-05-06 15:05 50.05648 8.01456 11321 ft 330 kts 325°
2026-05-06 15:06 50.07570 7.99588 11445 ft 331 kts 326°
2026-05-06 15:06 50.09533 7.97703 11613 ft 332 kts 326°
2026-05-06 15:06 50.11498 7.95819 11816 ft 332 kts 326°
2026-05-06 15:06 50.13470 7.93923 11979 ft 333 kts 326°
2026-05-06 15:07 50.15440 7.92017 12142 ft 334 kts 326°
2026-05-06 15:07 50.17413 7.90102 12320 ft 335 kts 326°
2026-05-06 15:07 50.19391 7.88182 12502 ft 335 kts 326°
2026-05-06 15:07 50.21373 7.86256 12643 ft 335 kts 326°
2026-05-06 15:08 50.23300 7.84382 11984 ft 328 kts 325°
2026-05-06 15:08 50.25226 7.82504 11013 ft 325 kts 325°
2026-05-06 15:08 50.27131 7.80648 10109 ft 321 kts 325°
2026-05-06 15:08 50.29006 7.78822 9486 ft 308 kts 325°
2026-05-06 15:09 50.30759 7.77113 9132 ft 289 kts 325°
2026-05-06 15:09 50.32440 7.75467 8482 ft 283 kts 325°
2026-05-06 15:09 50.34110 7.73826 8062 ft 283 kts 325°
2026-05-06 15:09 50.35780 7.72180 8314 ft 285 kts 324°
2026-05-06 15:10 50.37437 7.70546 9224 ft 286 kts 325°
2026-05-06 15:10 50.39136 7.68871 10004 ft 292 kts 325°
2026-05-06 15:10 50.40902 7.67130 10477 ft 305 kts 325°
2026-05-06 15:10 50.42718 7.65342 11106 ft 312 kts 325°
2026-05-06 15:11 50.44578 7.63508 11745 ft 319 kts 325°
2026-05-06 15:11 50.46468 7.61642 12397 ft 324 kts 325°
2026-05-06 15:11 50.48395 7.59741 13059 ft 329 kts 325°
2026-05-06 15:11 50.50349 7.57815 13712 ft 334 kts 325°
2026-05-06 15:12 50.52323 7.55862 14318 ft 337 kts 325°
2026-05-06 15:12 50.54295 7.53910 14927 ft 341 kts 325°
2026-05-06 15:12 50.56315 7.51910 15465 ft 346 kts 324°
2026-05-06 15:12 50.58368 7.49871 16003 ft 352 kts 324°
2026-05-06 15:13 50.60450 7.47801 16549 ft 357 kts 324°
2026-05-06 15:13 50.62564 7.45698 17108 ft 362 kts 324°
2026-05-06 15:13 50.64707 7.43563 17672 ft 366 kts 324°
2026-05-06 15:13 50.66868 7.41407 18230 ft 370 kts 324°
2026-05-06 15:14 50.69050 7.39228 18735 ft 373 kts 324°
2026-05-06 15:14 50.71249 7.37032 19246 ft 375 kts 324°
2026-05-06 15:14 50.73294 7.34568 19756 ft 375 kts 314°
2026-05-06 15:14 50.75039 7.31518 20286 ft 375 kts 304°
2026-05-06 15:15 50.76394 7.28008 20822 ft 374 kts 295°
2026-05-06 15:15 50.77572 7.24346 21368 ft 375 kts 295°
2026-05-06 15:15 50.78763 7.20671 21922 ft 375 kts 295°
2026-05-06 15:15 50.79954 7.17004 22488 ft 376 kts 295°
2026-05-06 15:16 50.81153 7.13330 23067 ft 376 kts 295°
2026-05-06 15:16 50.82355 7.09645 23612 ft 377 kts 295°
2026-05-06 15:16 50.83542 7.05997 24055 ft 380 kts 295°
2026-05-06 15:16 50.84748 7.02277 24580 ft 380 kts 295°
2026-05-06 15:17 50.85952 6.98549 25114 ft 380 kts 295°
2026-05-06 15:17 50.87148 6.94828 25659 ft 378 kts 295°
2026-05-06 15:17 50.88336 6.91128 26222 ft 376 kts 295°
2026-05-06 15:17 50.89516 6.87457 26810 ft 372 kts 296°
2026-05-06 15:18 50.90686 6.83821 27396 ft 369 kts 296°
2026-05-06 15:18 50.91843 6.80220 27983 ft 365 kts 296°
2026-05-06 15:18 50.92972 6.76697 28584 ft 361 kts 296°
2026-05-06 15:18 50.94098 6.73176 29182 ft 356 kts 296°
2026-05-06 15:19 50.95207 6.69703 29838 ft 351 kts 295°
2026-05-06 15:19 50.96314 6.66234 30082 ft 356 kts 295°
2026-05-06 15:19 50.97444 6.62679 30209 ft 364 kts 295°
2026-05-06 15:19 50.98594 6.59050 30325 ft 372 kts 295°
2026-05-06 15:20 50.99770 6.55340 30468 ft 380 kts 295°
2026-05-06 15:20 51.00969 6.51546 30589 ft 388 kts 295°
2026-05-06 15:20 51.02191 6.47680 30723 ft 396 kts 295°
2026-05-06 15:20 51.03442 6.43723 30848 ft 404 kts 295°
2026-05-06 15:21 51.04714 6.39692 30981 ft 412 kts 295°
2026-05-06 15:21 51.06003 6.35609 31110 ft 420 kts 295°
2026-05-06 15:21 51.07321 6.31421 31240 ft 427 kts 295°
2026-05-06 15:21 51.08657 6.27165 31369 ft 434 kts 295°
2026-05-06 15:22 51.10013 6.22835 31554 ft 439 kts 295°
2026-05-06 15:22 51.11354 6.18533 31886 ft 440 kts 295°
2026-05-06 15:22 51.12715 6.14177 32284 ft 440 kts 295°
2026-05-06 15:22 51.13968 6.09739 32713 ft 438 kts 288°
2026-05-06 15:23 51.14823 6.05108 33132 ft 436 kts 283°
2026-05-06 15:23 51.15581 6.00434 33576 ft 435 kts 283°
2026-05-06 15:23 51.16338 5.95765 33828 ft 436 kts 282°
2026-05-06 15:24 51.17841 5.86429 33877 ft 434 kts 282°
2026-05-06 15:24 51.19917 5.77381 33880 ft 436 kts 291°
2026-05-06 15:25 51.22270 5.68538 33887 ft 436 kts 291°
2026-05-06 15:25 51.24616 5.59614 33896 ft 436 kts 291°
2026-05-06 15:26 51.26950 5.50668 33886 ft 436 kts 291°
2026-05-06 15:26 51.29282 5.41721 33886 ft 436 kts 291°
2026-05-06 15:27 51.31595 5.32834 33899 ft 436 kts 291°
2026-05-06 15:27 51.33920 5.23871 33886 ft 436 kts 290°
2026-05-06 15:28 51.36231 5.14905 33890 ft 436 kts 290°
2026-05-06 15:28 51.38535 5.05929 33904 ft 436 kts 290°
2026-05-06 15:29 51.40819 4.97020 33912 ft 435 kts 290°
2026-05-06 15:29 51.43113 4.88046 33914 ft 435 kts 290°
2026-05-06 15:30 51.45390 4.79062 33915 ft 435 kts 290°
2026-05-06 15:30 51.47654 4.70069 33910 ft 434 kts 290°
2026-05-06 15:31 51.49899 4.61141 33893 ft 434 kts 290°
2026-05-06 15:31 51.52154 4.52165 33895 ft 433 kts 290°
2026-05-06 15:32 51.55521 4.38693 33891 ft 433 kts 290°
2026-05-06 15:32 51.57734 4.29774 33890 ft 432 kts 290°
2026-05-06 15:33 51.59951 4.20788 33894 ft 432 kts 290°
2026-05-06 15:33 51.62163 4.11810 33892 ft 431 kts 290°
2026-05-06 15:34 51.64363 4.02845 33897 ft 430 kts 290°
2026-05-06 15:34 51.66552 3.93892 33903 ft 429 kts 289°
2026-05-06 15:35 51.68713 3.85013 33908 ft 428 kts 290°
2026-05-06 15:35 51.70874 3.76088 33911 ft 427 kts 289°
2026-05-06 15:36 51.73024 3.67171 33910 ft 427 kts 290°
2026-05-06 15:36 51.75166 3.58251 33918 ft 425 kts 289°
2026-05-06 15:37 51.77282 3.49416 33926 ft 425 kts 289°
2026-05-06 15:37 51.79406 3.40525 33928 ft 424 kts 289°
2026-05-06 15:38 51.81521 3.31634 33933 ft 424 kts 289°
2026-05-06 15:38 51.83611 3.22727 33942 ft 423 kts 287°
2026-05-06 15:39 51.84580 3.13435 33941 ft 420 kts 269°
2026-05-06 15:39 51.84065 3.04047 33941 ft 420 kts 263°
2026-05-06 15:40 51.83463 2.94812 33769 ft 408 kts 263°
2026-05-06 15:40 51.83169 2.90280 33373 ft 403 kts 263°
2026-05-06 15:40 51.82874 2.85805 32925 ft 399 kts 263°
2026-05-06 15:41 51.82578 2.81369 32470 ft 395 kts 263°
2026-05-06 15:41 51.82282 2.76967 32009 ft 392 kts 263°
2026-05-06 15:41 51.81986 2.72602 31561 ft 390 kts 263°
2026-05-06 15:41 51.81690 2.68266 31120 ft 387 kts 262°
2026-05-06 15:42 51.81393 2.63961 30684 ft 384 kts 262°
2026-05-06 15:42 51.81103 2.59740 30272 ft 382 kts 262°
2026-05-06 15:42 51.80812 2.55489 29842 ft 379 kts 262°
2026-05-06 15:42 51.80520 2.51271 29367 ft 377 kts 262°
2026-05-06 15:43 51.80228 2.47081 28923 ft 374 kts 262°
2026-05-06 15:43 51.79936 2.42929 28492 ft 371 kts 262°
2026-05-06 15:43 51.79644 2.38805 28079 ft 368 kts 262°
2026-05-06 15:43 51.79352 2.34705 27663 ft 366 kts 262°
2026-05-06 15:44 51.79059 2.30639 27261 ft 363 kts 262°
2026-05-06 15:44 51.78767 2.26606 26853 ft 361 kts 262°
2026-05-06 15:44 51.78477 2.22595 26451 ft 358 kts 262°
2026-05-06 15:44 51.78208 2.18609 26053 ft 356 kts 263°
2026-05-06 15:45 51.77972 2.14645 25660 ft 353 kts 264°
2026-05-06 15:45 51.77754 2.10757 25268 ft 351 kts 264°
2026-05-06 15:45 51.77537 2.06849 24983 ft 348 kts 264°
2026-05-06 15:45 51.77316 2.02945 24954 ft 350 kts 264°
2026-05-06 15:46 51.77090 1.99034 24961 ft 351 kts 264°
2026-05-06 15:46 51.76857 1.95114 24961 ft 351 kts 264°
2026-05-06 15:46 51.76621 1.91188 24965 ft 351 kts 264°
2026-05-06 15:46 51.76384 1.87265 24963 ft 351 kts 264°
2026-05-06 15:47 51.76145 1.83353 24737 ft 349 kts 264°
2026-05-06 15:47 51.75904 1.79471 24320 ft 347 kts 264°
2026-05-06 15:47 51.75663 1.75604 23922 ft 345 kts 264°
2026-05-06 15:47 51.75425 1.71812 23527 ft 343 kts 264°
2026-05-06 15:48 51.75183 1.68002 23067 ft 341 kts 264°
2026-05-06 15:48 51.74944 1.64200 22619 ft 339 kts 264°
2026-05-06 15:48 51.74707 1.60428 22182 ft 337 kts 264°
2026-05-06 15:48 51.74471 1.56677 21757 ft 335 kts 264°
2026-05-06 15:49 51.74234 1.52953 21337 ft 333 kts 264°
2026-05-06 15:49 51.73999 1.49250 20917 ft 331 kts 264°
2026-05-06 15:49 51.73764 1.45567 20508 ft 329 kts 264°
2026-05-06 15:49 51.73524 1.41903 20101 ft 327 kts 264°
2026-05-06 15:50 51.73284 1.38265 19706 ft 325 kts 264°
2026-05-06 15:50 51.73044 1.34642 19320 ft 324 kts 264°
2026-05-06 15:50 51.72810 1.31093 18942 ft 322 kts 264°
2026-05-06 15:50 51.72576 1.27511 18569 ft 320 kts 264°
2026-05-06 15:51 51.72343 1.23952 18198 ft 319 kts 264°
2026-05-06 15:51 51.72108 1.20404 17778 ft 317 kts 264°
2026-05-06 15:51 51.71872 1.16879 17377 ft 315 kts 264°
2026-05-06 15:51 51.71636 1.13376 16986 ft 314 kts 264°
2026-05-06 15:52 51.71399 1.09894 16611 ft 312 kts 264°
2026-05-06 15:52 51.71165 1.06424 16241 ft 310 kts 264°
2026-05-06 15:52 51.70929 1.02976 15873 ft 309 kts 264°
2026-05-06 15:52 51.70696 0.99585 15513 ft 307 kts 264°
2026-05-06 15:53 51.70458 0.96171 15151 ft 306 kts 264°
2026-05-06 15:53 51.70222 0.92775 14822 ft 304 kts 264°
2026-05-06 15:53 51.69989 0.89393 14485 ft 303 kts 264°
2026-05-06 15:53 51.69758 0.86035 14157 ft 301 kts 264°
2026-05-06 15:54 51.69525 0.82697 13983 ft 299 kts 264°
2026-05-06 15:54 51.69290 0.79360 13994 ft 301 kts 264°
2026-05-06 15:54 51.69053 0.76005 13997 ft 301 kts 264°
2026-05-06 15:54 51.68817 0.72654 13997 ft 301 kts 264°
2026-05-06 15:55 51.68584 0.69350 13992 ft 300 kts 264°
2026-05-06 15:55 51.68349 0.66023 13674 ft 298 kts 264°
2026-05-06 15:55 51.68111 0.62718 13299 ft 297 kts 264°
2026-05-06 15:55 51.67875 0.59435 13002 ft 293 kts 264°
2026-05-06 15:56 51.67642 0.56199 12702 ft 289 kts 264°
2026-05-06 15:56 51.67410 0.52984 12383 ft 288 kts 265°
2026-05-06 15:56 51.67180 0.49788 12065 ft 287 kts 265°
2026-05-06 15:56 51.66949 0.46610 11730 ft 285 kts 265°
2026-05-06 15:57 51.66716 0.43439 11391 ft 285 kts 265°
2026-05-06 15:57 51.66482 0.40276 11048 ft 284 kts 265°
2026-05-06 15:57 51.66249 0.37128 10703 ft 283 kts 265°
2026-05-06 15:57 51.66020 0.34028 10377 ft 282 kts 265°
2026-05-06 15:58 51.65789 0.30897 10057 ft 281 kts 265°
2026-05-06 15:58 51.65557 0.27772 9733 ft 281 kts 264°
2026-05-06 15:58 51.65320 0.24662 9436 ft 279 kts 265°
2026-05-06 15:58 51.65084 0.21608 9303 ft 271 kts 264°
2026-05-06 15:59 51.64857 0.18648 9168 ft 263 kts 264°
2026-05-06 15:59 51.64637 0.15764 9035 ft 256 kts 264°
2026-05-06 15:59 51.64437 0.12923 8545 ft 262 kts 266°
2026-05-06 15:59 51.64263 0.09933 8084 ft 271 kts 266°
2026-05-06 16:00 51.64098 0.06916 7991 ft 276 kts 266°
2026-05-06 16:00 51.63932 0.03834 7998 ft 277 kts 266°
2026-05-06 16:00 51.63761 0.00738 8000 ft 278 kts 266°
2026-05-06 16:00 51.63587 -0.02360 8002 ft 278 kts 266°
2026-05-06 16:01 51.63414 -0.05459 8000 ft 278 kts 266°
2026-05-06 16:01 51.63242 -0.08548 8048 ft 277 kts 266°
2026-05-06 16:01 51.63068 -0.11642 8050 ft 277 kts 266°
2026-05-06 16:01 51.62891 -0.14727 8053 ft 277 kts 266°
2026-05-06 16:02 51.62712 -0.17818 8051 ft 277 kts 266°
2026-05-06 16:02 51.62534 -0.20883 7848 ft 272 kts 266°
2026-05-06 16:02 51.62361 -0.23844 7722 ft 262 kts 266°
2026-05-06 16:02 51.62190 -0.26728 7593 ft 256 kts 266°
2026-05-06 16:03 51.62026 -0.29508 7467 ft 249 kts 266°
2026-05-06 16:03 51.61863 -0.32246 7273 ft 243 kts 266°
2026-05-06 16:03 51.61706 -0.34929 7073 ft 239 kts 266°
2026-05-06 16:03 51.61552 -0.37595 6998 ft 239 kts 266°
2026-05-06 16:04 51.61399 -0.40270 6998 ft 240 kts 266°
2026-05-06 16:04 51.61245 -0.42942 7002 ft 240 kts 266°
2026-05-06 16:04 51.61088 -0.45618 7006 ft 240 kts 266°
2026-05-06 16:04 51.60930 -0.48287 7001 ft 240 kts 266°
2026-05-06 16:05 51.60771 -0.50960 7002 ft 240 kts 266°
2026-05-06 16:05 51.60613 -0.53625 6999 ft 240 kts 266°
2026-05-06 16:05 51.60454 -0.56254 6998 ft 240 kts 266°
2026-05-06 16:05 51.60289 -0.58923 6999 ft 239 kts 266°
2026-05-06 16:06 51.60120 -0.61581 7001 ft 240 kts 266°
2026-05-06 16:06 51.59948 -0.64237 6938 ft 235 kts 266°
2026-05-06 16:06 51.59780 -0.66813 6804 ft 228 kts 266°
2026-05-06 16:06 51.59669 -0.68456 6718 ft 219 kts 265°
2026-05-06 16:07 51.59507 -0.70813 6590 ft 205 kts 266°
2026-05-06 16:07 51.59349 -0.73042 6488 ft 195 kts 265°
2026-05-06 16:07 51.58621 -0.75602 6062 ft 197 kts 222°
2026-05-06 16:07 51.57370 -0.76448 5612 ft 200 kts 189°
2026-05-06 16:08 51.55972 -0.76597 5266 ft 202 kts 182°
2026-05-06 16:08 51.54568 -0.76641 4932 ft 201 kts 181°
2026-05-06 16:08 51.53178 -0.76675 4603 ft 200 kts 180°
2026-05-06 16:08 51.52256 -0.76699 4365 ft 200 kts 181°
2026-05-06 16:09 51.50867 -0.76745 4021 ft 199 kts 181°
2026-05-06 16:09 51.49477 -0.76764 3696 ft 200 kts 173°
2026-05-06 16:09 51.48243 -0.75916 3397 ft 193 kts 136°
2026-05-06 16:09 51.47628 -0.73458 3199 ft 184 kts 84°
2026-05-06 16:10 51.47644 -0.72074 3046 ft 184 kts 86°
2026-05-06 16:10 51.47646 -0.70040 2800 ft 179 kts 86°
2026-05-06 16:10 51.47652 -0.68107 2568 ft 169 kts 85°
2026-05-06 16:10 51.47662 -0.66268 2347 ft 166 kts 85°
2026-05-06 16:11 51.47672 -0.64447 2127 ft 162 kts 85°
2026-05-06 16:11 51.47682 -0.62640 1904 ft 162 kts 85°
2026-05-06 16:11 51.47691 -0.60837 1690 ft 162 kts 85°
2026-05-06 16:11 51.47700 -0.59042 1463 ft 161 kts 85°
2026-05-06 16:12 51.47707 -0.57312 1244 ft 148 kts 86°
2026-05-06 16:12 51.47715 -0.55713 1036 ft 141 kts 85°
2026-05-06 16:12 51.47723 -0.54157 841 ft 139 kts 84°
2026-05-06 16:12 51.47730 -0.52619 640 ft 138 kts 85°
2026-05-06 16:13 51.47737 -0.51094 457 ft 138 kts 85°
2026-05-06 16:13 51.47744 -0.49567 266 ft 137 kts 85°
2026-05-06 16:13 51.47750 -0.48035 98 ft 137 kts 85°
2026-05-06 16:13 51.47757 -0.46708 93 ft 96 kts 89°
2026-05-06 16:14 51.47760 -0.45996 86 ft 32 kts 90°
2026-05-06 16:14 51.47760 -0.45668 85 ft 29 kts 90°
2026-05-06 16:14 51.47695 -0.45475 87 ft 11 kts 167°
2026-05-06 16:14 51.47615 -0.45485 89 ft 12 kts 211°
2026-05-06 16:15 51.47595 -0.45631 90 ft 16 kts 269°
2026-05-06 16:15 51.47595 -0.45823 88 ft 19 kts 270°
2026-05-06 16:15 51.47594 -0.46050 90 ft 23 kts 270°
2026-05-06 16:15 51.47593 -0.46310 87 ft 25 kts 269°
2026-05-06 16:16 51.47592 -0.46601 87 ft 23 kts 270°
2026-05-06 16:16 51.47587 -0.46846 87 ft 21 kts 260°
2026-05-06 16:16 51.47582 -0.47092 90 ft 23 kts 269°
2026-05-06 16:16 51.47581 -0.47357 87 ft 23 kts 269°
2026-05-06 16:17 51.47580 -0.47628 90 ft 25 kts 270°
2026-05-06 16:17 51.47579 -0.47917 90 ft 24 kts 269°
2026-05-06 16:17 51.47578 -0.48199 89 ft 27 kts 270°
2026-05-06 16:17 51.47572 -0.48438 87 ft 18 kts 247°
2026-05-06 16:18 51.47458 -0.48478 87 ft 19 kts 180°
2026-05-06 16:18 51.47321 -0.48477 87 ft 21 kts 179°
2026-05-06 16:18 51.47167 -0.48475 87 ft 23 kts 180°
2026-05-06 16:18 51.47003 -0.48474 87 ft 21 kts 180°
2026-05-06 16:19 51.46903 -0.48480 88 ft 12 kts 202°
2026-05-06 16:19 51.46876 -0.48601 87 ft 9 kts 270°
2026-05-06 16:19 51.46908 -0.48649 87 ft 5 kts 359°
2026-05-06 16:19 51.46930 -0.48649 89 ft 0 kts 359°